Latrobe, PA

10:23 PM EDT on August 22, 2019 (GMT -0400)
Arnold Palmer Regional

Weather History for KLBE - May, 2019

Change the Weather History Date:

Tuesday, May 14, 2019

  Actual Average Record
Temperature  
Mean Temperature 46 °F -  
Max Temperature 51 °F 70 °F 87 °F (1998)
Min Temperature 41 °F 47 °F 30 °F (2013)
Degree Days  
Heating Degree Days 19    
Moisture  
Dew Point 43 °F    
Average Humidity 93    
Maximum Humidity 100    
Minimum Humidity 67    
Precipitation  
Precipitation 0.00 in - - ()
Sea Level Pressure  
Sea Level Pressure 29.92 in    
Wind  
Wind Speed 5 mph (West)    
Max Wind Speed 21 mph    
Max Gust Speed -    
Visibility 10 miles    
Events Rain    
Averages and records for this station are not official NWS values.
T = Trace of Precipitation, MM = Missing Value Source: NWS Daily Summary

Daily Weather History Graph

Daily Weather History Graph

Search for Another Location

Airport or City:

Astronomy

May. 14, 2019 Rise Set
Actual Time 6:02 AM EDT 8:25 PM EDT
Civil Twilight 5:32 AM EDT 8:56 PM EDT
Nautical Twilight 4:54 AM EDT 9:34 PM EDT
Astronomical Twilight 4:12 AM EDT 10:16 PM EDT
Moon 3:44 PM EDT (5/14) 3:55 AM EDT (5/14)
Length of Visible Light 15h 24m
Length of Day
14h 22m
Waxing Gibbous, 79% of the Moon is Illuminated
May 14
Waxing Gibbous
May 18
Full
May 26
Last Quarter
Jun 3
New
Jun 10
First Quarter

Hourly Weather History & Observations

Time (EDT) Temp. Windchill Dew Point Humidity Pressure Visibility Wind Dir Wind Speed Gust Speed Precip Events Conditions
12:15 AM 46.4 °F - 44.6 °F 93% 29.89 in 10.0 mi Calm Calm - N/A   Overcast
12:35 AM 46.4 °F - 44.6 °F 93% 29.89 in 10.0 mi Calm Calm - N/A   Overcast
12:55 AM 46.4 °F - 46.4 °F 100% 29.88 in 10.0 mi Calm Calm - N/A   Overcast
1:15 AM 46.4 °F 44.3 °F 46.4 °F 100% 29.88 in 10.0 mi SSW 4.6 mph - N/A   Overcast
1:35 AM 46.4 °F 43.5 °F 46.4 °F 100% 29.87 in 10.0 mi WSW 5.8 mph - N/A   Overcast
1:55 AM 44.6 °F 42.2 °F 44.6 °F 100% 29.87 in 7.0 mi Variable 4.6 mph - N/A   Light Drizzle
2:15 AM 44.6 °F 41.4 °F 44.6 °F 100% 29.86 in 10.0 mi West 5.8 mph - N/A   Light Drizzle
2:35 AM 44.6 °F 40.7 °F 44.6 °F 100% 29.86 in 6.0 mi WNW 6.9 mph - N/A Rain Light Rain
2:55 AM 42.8 °F 40.1 °F 42.8 °F 100% 29.86 in 10.0 mi West 4.6 mph - N/A   Light Drizzle
3:15 AM 42.8 °F 40.1 °F 42.8 °F 100% 29.86 in 10.0 mi West 4.6 mph - N/A   Overcast
3:35 AM 42.8 °F 39.3 °F 42.8 °F 100% 29.86 in 10.0 mi West 5.8 mph - N/A   Overcast
3:55 AM 42.8 °F 38.6 °F 42.8 °F 100% 29.86 in 10.0 mi West 6.9 mph - N/A   Overcast
4:15 AM 42.8 °F 38.6 °F 42.8 °F 100% 29.87 in 10.0 mi WSW 6.9 mph - N/A   Overcast
4:35 AM 42.8 °F 40.1 °F 42.8 °F 100% 29.88 in 10.0 mi WSW 4.6 mph - N/A   Overcast
4:55 AM 42.8 °F 38.6 °F 42.8 °F 100% 29.88 in 10.0 mi Variable 6.9 mph - N/A   Mostly Cloudy
5:15 AM 42.8 °F 40.1 °F 42.8 °F 100% 29.88 in 10.0 mi WSW 4.6 mph - N/A   Mostly Cloudy
5:35 AM 42.8 °F 38.0 °F 42.8 °F 100% 29.89 in 10.0 mi WSW 8.1 mph - N/A   Overcast
5:55 AM 42.8 °F 38.6 °F 42.8 °F 100% 29.89 in 10.0 mi WSW 6.9 mph - N/A   Overcast
6:53 AM 42.8 °F 38.0 °F 42.8 °F 100% 29.91 in 5.0 mi WSW 8.1 mph - N/A Rain Light Rain
7:53 AM 42.8 °F 35.4 °F 42.8 °F 100% 29.92 in 2.0 mi WNW 15.0 mph - N/A Rain Rain
8:53 AM 44.6 °F 38.1 °F 44.6 °F 100% 29.93 in 10.0 mi WSW 13.8 mph - N/A   Overcast
9:53 AM 42.8 °F 37.5 °F 42.8 °F 100% 29.94 in 10.0 mi WSW 9.2 mph - N/A   Overcast
10:53 AM 44.6 °F 38.4 °F 44.6 °F 100% 29.94 in 10.0 mi WSW 12.7 mph - N/A   Overcast
11:47 AM 46.4 °F 41.1 °F 42.8 °F 87% 29.95 in 15.0 mi West 11.5 mph - N/A   Overcast
12:47 PM 50.0 °F - 44.6 °F 82% 29.95 in 15.0 mi West 11.5 mph - N/A   Overcast
1:47 PM 50.0 °F - 42.8 °F 76% 29.95 in 15.0 mi West 11.5 mph - N/A   Overcast
2:47 PM 50.0 °F - 42.8 °F 76% 29.95 in 15.0 mi West 6.9 mph - N/A   Overcast
3:50 PM 51.8 °F - 41.0 °F 67% 29.96 in 10.0 mi West 20.7 mph - N/A   Overcast
4:50 PM 51.8 °F - 41.0 °F 67% 29.96 in 10.0 mi West 11.5 mph - N/A   Overcast
5:45 PM 51.8 °F - 42.8 °F 71% 29.96 in 10.0 mi WNW 8.1 mph - N/A   Overcast
6:45 PM 51.8 °F - 41.0 °F 67% 29.97 in 10.0 mi NW 8.1 mph - N/A   Overcast
7:50 PM 51.8 °F - 42.8 °F 71% 29.98 in 10.0 mi NW 4.6 mph - N/A   Overcast
8:50 PM 48.2 °F - 42.8 °F 82% 29.98 in 10.0 mi Calm Calm - N/A   Partly Cloudy
9:50 PM 44.6 °F - 44.6 °F 100% 29.99 in 10.0 mi Calm Calm - N/A   Clear
10:15 PM 44.6 °F - 44.6 °F 100% 29.99 in 10.0 mi Calm Calm - N/A   Clear
10:35 PM 42.8 °F - 42.8 °F 100% 29.99 in 10.0 mi Calm Calm - N/A   Clear
10:55 PM 42.8 °F - 42.8 °F 100% 30.00 in 10.0 mi Calm Calm - N/A   Clear
11:15 PM 42.8 °F - 42.8 °F 100% 29.99 in 10.0 mi Calm Calm - N/A   Clear
11:35 PM 41.0 °F - 41.0 °F 100% 29.99 in 10.0 mi Calm Calm - N/A   Clear
11:55 PM 41.0 °F - 41.0 °F 100% 29.99 in 10.0 mi Calm Calm - N/A   Clear